Location: Kinloch
(38.7406°N, 90.3254°W)
Time: 15:01:10
(UTC+00:00)

Cosmos 2082 - Pass Details

Date: 13 February 2026
Orbit: 831 x 854 km, 71.0° (Epoch: 8 March)

Event Time Altitude Azimuth Distance (km) Brightness Sun altitude
Rises 12:17:02 0° 334° (NNW) 3,424 6.5 -8.0°
Reaches altitude 10° 12:19:30 10° 332° (NNW) 2,482 5.8 -7.5°
Maximum altitude 12:25:09 66° 251° (WSW) 920 3.7 -6.4°
Drops below altitude 10° 12:30:43 10° 170° (S) 2,452 6.4 -5.3°
Sets 12:33:09 0° 168° (SSE) 3,379 7.2 -4.9°
